"Pseudo-MPEC" for A10nMa2

Created 2020 Jun 30 15:07:03 UT using Find_Orb

Click here for an explanation of pseudo-MPECs

 
 Astrometry: 
     A10nMa2  C2020 06 29.43704618 09 01.48 -23 27 59.9    ~6TJq 16.63oVNEOCPT05
     A10nMa2  C2020 06 29.44025018 09 01.48 -23 27 55.5    ~6TJq 16.59oVNEOCPT05
     A10nMa2  C2020 06 29.45320718 09 01.47 -23 27 37.3    ~6TJq 16.63oVNEOCPT05
     A10nMa2 KC2020 06 29Qk.'cEuRm5`J%^K.uRy;NZFmi/INx!@`\]+T38GHxAstrometryLG34
     A10nMa2 KC2020 06 29fX08@+D?!L!?C0irbDlHZO.5bF6exbQ0rCPXBpYnJZ4mEW?aUed5G34
     A10nMa2 KC2020 06 29or$1r;vpWN'*K1bm'AbQUPy-b*QSx0dJKa@\i!f:3N.nIJ%yYa=uG34
     A10nMa2 KC2020 06 29#!!.TSs#CZDIylcfuK[Du[#O4]j+XG-ZV;3N47rH5xqhD5U?`j6KG34
     A10nMa2 KC2020 06 29A?9$0D7W+KgG^5Oh8@/-dD^_,u1wnJV$nm6#!Vsj`a(X'8el6'*u958
     A10nMa2 KC2020 06 29g`Jx]?H9wq`3KXkLidpOLy-SkMy[.)1vi[N'TQtRH[?sm0y\uIeG958
     A10nMa2 KC2020 06 29sTGT).7:^[O3b*d\6fqU_ef8!a;gb:pe:Jnbawlt9v8O2$Gg=f-U203
     A10nMa2 KC2020 06 29.95544918 09 06.14 -23 15 59.9    ~6TNq 16.1 GUNEOCPI93
     A10nMa2 KC2020 06 29AHp.0hH'T+?GeZx1T7-FgsJh:g.HBOJl8[[:iW!kP#00!Am(d4!4203
     A10nMa2 KC2020 06 29p!drwmBC+WXFsGWu9-xI=SE5FMyZ)g6yhTq?Hmredacted;b-KAS958
     A10nMa2 KC2020 06 29.97077018 09 06.17 -23 15 38.5    ~6TNq 16.3 GUNEOCPI93
     A10nMa2 KC2020 06 30DB0s[qK_4Y*#%1V::C*me_*a2Gn]B[d2U*Z9r9wPs.,3#PqclickE23
     A10nMa2 KC2020 06 30p;0iq!!f^wB?aTN;8cTeQ;u`Gb=QZgGjVGWhere\oy$i`2qVKZ0jE23
     A10nMa2 KC2020 06 30]b_2`us8/`_S=`oNbQDaUg!h^Wm?h7V*vB`\=Yt?3Z6s)?[[for=E23
     A10nMa2 KC2020 06 30vj*x2BUY;wpq'FnA)eWltkd/)TDFPiPNUs^54[_`=,T85?9Feg7kE23
     A10nMa2 KC2020 06 30QV![0y':hXiD+'3sLexplanationYYXgrGaenLR+];s%r@;2c_=DE23
     A10nMa2 KC2020 06 30Lj`x$tWkFXR1LY=2wT'Js-Bs'7+DvhlN!pH2nDHYq'P]X+d(XK%+E23

Station data:
(203) GiaGa Observatory  (N45.541408 E8.995500)  Italy. 0.13-m f/6.4
   refractor.
(958) Observatoire de Dax  (N43.693327 W1.030390)  France.
(E23) Arcadia  (S33.621199 E151.071190)  Australia/NSW.
(G34) Oberfrauendorf  (N50.860063 E13.701500)  Germany.
(I93) St Pardon de Conques  (N44.558710 W0.203000)  France.  Observer F.
   Losse. 0.40-m f/3.7 reflector + CCD.
(T05) ATLAS-HKO, Haleakala  (N20.707573 W156.257010)  US/Hawaii.  Observers
   L. Denneau, A. Heinze, H. Weiland, J. Tonry, H. Flewelling, A.
   Fitzsimmons, D. Young, B. Stalder. Measurers L. Denneau, A. Heinze, J.
   Tonry. 0.5-m f/2.0 Schmidt + CCD.

Orbital elements:  A10nMa2
   Perihelion 2020 Jul 23.730438 +/- 9.81 TT = 17:31:49 (JD 2459054.230438)
Epoch 2020 Jun 30.0 TT = JDT 2459030.5   Earth MOID: 0.3945   Ju: 0.9913
M 355.07816087 +/- 0.7              Ma: 0.0053                AutoNEOCP
n   0.20740616 +/- 0.0445           Peri.   17.33216 +/- 7
a   2.82653876 +/- 0.404            Node   276.24679 +/- 0.07
e   0.5020103 +/- 0.0712            Incl.    9.20656 +/- 0.48
P   4.75                   H 17.5   G  0.15   U 10.7  
q 1.40758708 +/- 0.00651    Q 4.24549044 +/- 0.913
From 20 observations 2020 June 29-30 (26.4 hr); mean residual 0".39
Residuals in arcseconds: 
200629 T05  .13+  .04+    200629 958  .44+  .62-    200630 E23  .56+  .67-    
200629 T05  .17+  .05-    200629 958  .38+  .05+    200630 E23  .19-  .63+    
200629 T05  .17+  .05-    200629 203  .15+  .27+    200630 E23  .25-  .10+    
200629 G34  .27-  .10-    200629 I93  .24-  .29+    200630 E23  1.2+  .40+    
200629 G34  .20-  .04+    200629 203  .06+  .48-    200630 E23  .24-  .04-    
200629 G34  .62-  .53+    200629 958  .23-  .41-    200630 E23  .58-  .43-    
200629 G34  .27-  .17+    200629 I93  .18-  .32+    

Ephemerides (geocentric):
Date (UTC) HH   RA              Dec         delta   r     elong  mag " sig PA
---- -- -- --  -------------   -----------  ------ ------ -----  --- ---- ---
2020 06 30 15  18 09 11.859   -23 00 01.55  .41283 1.4274 173.1 16.8 0.99  31
2020 06 30 16  18 09 12.238   -22 59 03.00  .41278 1.4273 173.1 16.8 1.20  27
2020 06 30 17  18 09 12.619   -22 58 04.43  .41273 1.4272 173.0 16.8 1.42  24
2020 06 30 18  18 09 13.002   -22 57 05.85  .41268 1.4272 173.0 16.8 1.65  21
2020 06 30 19  18 09 13.386   -22 56 07.26  .41264 1.4271 173.0 16.8 1.89  19
2020 06 30 20  18 09 13.771   -22 55 08.66  .41259 1.4270 172.9 16.8 2.15  18
2020 06 30 21  18 09 14.158   -22 54 10.04  .41255 1.4269 172.9 16.8 2.42  16
2020 06 30 22  18 09 14.546   -22 53 11.42  .41250 1.4269 172.8 16.8 2.70  15
2020 06 30 23  18 09 14.936   -22 52 12.78  .41246 1.4268 172.8 16.8 2.99  14
2020 07 01 00  18 09 15.327   -22 51 14.13  .41241 1.4267 172.8 16.8 3.29  13
2020 07 01 01  18 09 15.720   -22 50 15.47  .41237 1.4267 172.7 16.8 3.61  13
2020 07 01 02  18 09 16.115   -22 49 16.80  .41232 1.4266 172.7 16.8 3.93  12
2020 07 01 03  18 09 16.511   -22 48 18.11  .41228 1.4265 172.6 16.8 4.27  11
2020 07 01 04  18 09 16.908   -22 47 19.42  .41223 1.4265 172.6 16.8 4.61  11
2020 07 01 05  18 09 17.307   -22 46 20.71  .41219 1.4264 172.6 16.8 4.97  11
2020 07 01 06  18 09 17.708   -22 45 22.00  .41215 1.4263 172.5 16.8 5.34  10
2020 07 01 07  18 09 18.110   -22 44 23.27  .41210 1.4263 172.5 16.8 5.72  10
2020 07 01 08  18 09 18.513   -22 43 24.53  .41206 1.4262 172.4 16.8 6.11   9
2020 07 01 09  18 09 18.919   -22 42 25.78  .41202 1.4261 172.4 16.8 6.51   9
2020 07 01 10  18 09 19.326   -22 41 27.02  .41198 1.4261 172.4 16.8 6.92   9
2020 07 01 11  18 09 19.734   -22 40 28.25  .41193 1.4260 172.3 16.8 7.34   9
2020 07 01 12  18 09 20.144   -22 39 29.47  .41189 1.4259 172.3 16.8 7.78   8
2020 07 01 13  18 09 20.555   -22 38 30.68  .41185 1.4258 172.2 16.8 8.22   8
2020 07 01 14  18 09 20.969   -22 37 31.88  .41181 1.4258 172.2 16.8 8.68   8
2020 07 01 15  18 09 21.383   -22 36 33.07  .41177 1.4257 172.2 16.8 9.14   8
2020 07 01 16  18 09 21.800   -22 35 34.25  .41173 1.4256 172.1 16.8 9.62   8
2020 07 01 17  18 09 22.218   -22 34 35.42  .41169 1.4256 172.1 16.8 10.1   7
2020 07 01 18  18 09 22.637   -22 33 36.58  .41165 1.4255 172.1 16.8 10.6   7
2020 07 01 19  18 09 23.059   -22 32 37.73  .41161 1.4254 172.0 16.8 11.1   7
2020 07 01 20  18 09 23.481   -22 31 38.88  .41157 1.4254 172.0 16.8 11.6   7
2020 07 01 21  18 09 23.906   -22 30 40.01  .41153 1.4253 171.9 16.8 12.2   7
2020 07 01 22  18 09 24.332   -22 29 41.13  .41149 1.4252 171.9 16.8 12.7   7
2020 07 01 23  18 09 24.760   -22 28 42.25  .41145 1.4252 171.9 16.8 13.3   7
2020 07 02 00  18 09 25.189   -22 27 43.35  .41141 1.4251 171.8 16.8 13.8   6
2020 07 02 01  18 09 25.620   -22 26 44.45  .41137 1.4250 171.8 16.8 14.4   6
2020 07 02 02  18 09 26.053   -22 25 45.54  .41134 1.4250 171.7 16.8 15.0   6
2020 07 02 03  18 09 26.488   -22 24 46.62  .41130 1.4249 171.7 16.8 15.6   6
2020 07 02 04  18 09 26.924   -22 23 47.69  .41126 1.4248 171.7 16.8 16.2   6
2020 07 02 05  18 09 27.362   -22 22 48.76  .41122 1.4248 171.6 16.8 16.8   6
2020 07 02 06  18 09 27.801   -22 21 49.81  .41119 1.4247 171.6 16.8 17.4   6
2020 07 02 07  18 09 28.242   -22 20 50.86  .41115 1.4246 171.5 16.8 18.1   6
2020 07 02 08  18 09 28.685   -22 19 51.90  .41112 1.4246 171.5 16.8 18.7   6
2020 07 02 09  18 09 29.130   -22 18 52.93  .41108 1.4245 171.5 16.8 19.4   6
2020 07 02 10  18 09 29.576   -22 17 53.95  .41104 1.4245 171.4 16.8 20.1   6
2020 07 02 11  18 09 30.024   -22 16 54.97  .41101 1.4244 171.4 16.8 20.8   6
2020 07 02 12  18 09 30.474   -22 15 55.98  .41097 1.4243 171.3 16.8 21.4   5
2020 07 02 13  18 09 30.925   -22 14 56.98  .41094 1.4243 171.3 16.8 22.2   5
2020 07 02 14  18 09 31.379   -22 13 57.97  .41090 1.4242 171.3 16.8 22.9   5